Weather in Ceske Velenice

Czech Republic     48°46′02″N   14°57′59″E
temp.,
°C
wind,
m/s
gust,
m/s
humid.,
%
clouds,
%
prec.,
mm/h
press.,
hPa
HPBL,
m
27 july, tue
tue2723:00+16w2297100 4.1 101328
02:00+17wnw2797100 8.2 1015230
05:00+15wsw239571 0.0 101550
08:00+18w138664 0.0 1016207
11:00+23ene115883 0.0 10161094
14:00+26e354546 0.0 10142052
17:00+25ese5653100 0.0 10131569
20:00+21e237612 0.1 101363
28 july, wed
wed2823:00+17ssw1190100 1.1 101411
02:00+17w1194100 2.1 101417
05:00+17wnw3697100 1.3 1015215
08:00+17w129299 1.6 1016172
11:00+20sse1276100 0.0 1015345
14:00+25ne21508 0.1 10141435
17:00+22n456784 0.4 1014738
20:00+16wnw31091100 2.4 1015417
29 july, thu
thu2923:00+15wsw239334 1.5 101785
02:00+13wsw23930 1.5 101749
05:00+12wsw21926 0.0 101716
08:00+16w12810 0.0 1017149
11:00+23wnw24520 0.0 10161183
14:00+26w244396 0.0 10142227
17:00+24nne125769 0.0 1013411
20:00+21sse23751 0.1 101351
30 july, fri
fri3023:00+17wsw228314 0.0 101311
02:00+16wnw1189100 0.0 101314
05:00+16w2499100 3.0 1014125
08:00+18w2691100 3.3 1013426
11:00+20wnw357884 0.5 1013862
14:00+24wnw375299 0.7 10111802
17:00+26w46474 0.0 10101934
20:00+20w2275100 0.0 101020
31 july, sat
sat3123:00+17wsw1189100 0.0 101111
02:00+18ssw1183100 0.0 101013
05:00+16wsw2289100 0.4 101018
08:00+18wsw4891100 1.3 1011365
11:00+19w5978100 0.4 1012706
14:00+22w4755100 0.5 10111452
17:00+24wnw464997 0.0 10111689
20:00+19w237585 0.0 101163